FW1036 Weather Reports


time (UTC)temp
C
wind
direction
speed
KPH
gust
KPH
rain 1hr
cm
rain 24hr
cm
rain mn
cm
humidity
%
barometer
mb
20260502123039 2 274 4.8 12.9 0.00 0.00 0.00 78 1017.6
20260502121536 2 300 1.6 9.7 0.00 0.00 0.00 82 1017.6
20260502114527 1 282 1.6 9.7 0.00 0.00 0.00 87 1017.4
20260502113025 0 268 0.0 4.8 0.00 0.00 0.00 88 1017.4
20260502111521 0 275 0.0 0.0 0.00 0.00 0.00 87 1017.4
20260502110019 0 275 0.0 3.2 0.00 0.00 0.00 87 1017.3
20260502104617 0 275 0.0 4.8 0.00 0.00 0.00 86 1017.1
20260502103036 0 269 0.0 4.8 0.00 0.00 0.00 86 1017.1
20260502101512 0 265 0.0 4.8 0.00 0.00 0.00 85 1017.1
20260502091504 1 266 0.0 4.8 0.00 0.00 0.00 85 1016.7
20260502070051 1 258 0.0 0.0 0.00 0.00 0.00 81 1016.6
20260502064551 1 258 0.0 0.0 0.00 0.00 0.00 80 1016.8
20260502063055 1 258 0.0 0.0 0.00 0.00 0.00 80 1016.8
20260502061548 1 258 0.0 0.0 0.00 0.00 0.00 79 1016.9
20260502060046 2 258 0.0 0.0 0.00 0.00 0.00 78 1016.9
20260502054554 2 258 0.0 0.0 0.00 0.00 0.00 79 1016.9
20260502053049 1 258 0.0 0.0 0.00 0.00 0.00 79 1016.8
20260502051543 1 342 0.0 0.0 0.00 0.00 0.00 78 1016.8
20260502050043 1 342 0.0 0.0 0.00 0.00 0.00 78 1016.8
20260502044542 2 342 0.0 0.0 0.00 0.00 0.00 78 1016.8
20260502043043 2 342 0.0 0.0 0.00 0.00 0.00 76 1016.9
20260502041539 2 342 0.0 0.0 0.00 0.00 0.00 73 1016.9
20260502040035 2 342 0.0 0.0 0.00 0.00 0.00 72 1016.7
20260502034535 2 342 0.0 3.2 0.00 0.00 0.00 72 1016.8
20260502033041 2 281 0.0 4.8 0.00 0.00 0.00 70 1016.8
20260502031534 2 355 3.2 8.0 0.00 0.00 0.00 70 1016.7
20260502030042 2 344 4.8 14.5 0.00 0.00 0.00 71 1016.7
20260502024533 2 351 3.2 12.9 0.00 0.00 0.00 71 1016.7
20260502023035 2 17 3.2 11.3 0.00 0.00 0.00 72 1016.8
20260502021534 2 5 3.2 6.4 0.00 0.00 0.00 73 1016.7
20260502020031 2 5 3.2 9.7 0.00 0.00 0.00 72 1016.6
20260502014531 2 25 4.8 9.7 0.00 0.00 0.00 71 1016.6
20260502013030 2 15 4.8 9.7 0.00 0.00 0.00 71 1016.4
20260502011528 2 5 8.0 12.9 0.00 0.00 0.00 71 1016.4
20260502010026 2 5 6.4 12.9 0.00 0.00 0.00 70 1016.3
20260502004525 2 12 4.8 9.7 0.00 0.00 0.00 69 1016.2
20260502003027 2 317 6.4 12.9 0.00 0.00 0.00 70 1016.1
20260502001525 2 16 4.8 9.7 0.00 0.00 0.00 70 1016.0
20260502000021 2 355 3.2 9.7 0.00 0.00 0.00 70 1015.8
20260501234521 2 5 9.7 19.3 0.00 0.00 0.00 70 1015.6
20260501233020 2 355 11.3 16.1 0.00 0.00 0.00 73 1015.5
20260501231519 3 28 14.5 19.3 0.00 0.00 0.00 72 1015.4
20260501230023 3 29 12.9 22.5 0.00 0.00 0.00 71 1015.2
20260501224519 3 31 17.7 24.1 0.00 0.00 0.00 70 1015.2
20260501223032 3 39 16.1 24.1 0.00 0.00 0.00 72 1015.1
20260501221517 3 41 16.1 22.5 0.00 0.00 0.00 74 1014.9
20260501220017 3 53 16.1 20.9 0.00 0.00 0.00 74 1015.0
20260501214526 3 31 17.7 24.1 0.00 0.13 0.00 74 1014.9
20260501213013 4 42 16.1 22.5 0.00 0.13 0.00 74 1014.7
20260501211513 4 23 16.1 24.1 0.00 0.13 0.00 69 1014.6
20260501210012 5 26 17.7 24.1 0.00 0.13 0.00 66 1014.4
20260501204511 5 49 17.7 25.7 0.00 0.13 0.00 66 1014.2
20260501203023 5 53 20.9 25.7 0.00 0.13 0.00 68 1014.3
20260501201510 5 34 19.3 29.0 0.00 0.13 0.00 70 1014.1
20260501200010 5 34 17.7 24.1 0.00 0.13 0.00 69 1014.1
20260501194510 6 5 9.7 17.7 0.00 0.13 0.00 63 1014.1
20260501193009 7 25 4.8 17.7 0.00 0.13 0.00 58 1014.1
20260501191507 6 316 4.8 11.3 0.00 0.13 0.00 57 1014.0
20260501190009 5 44 0.0 14.5 0.00 0.15 0.00 70 1014.0
20260501184506 5 38 9.7 20.9 0.00 0.15 0.00 74 1014.0
20260501183006 5 45 8.0 24.1 0.00 0.15 0.00 70 1014.0
20260501181505 5 45 14.5 25.7 0.00 0.15 0.00 76 1014.0
20260501180008 5 25 19.3 25.7 0.00 0.15 0.00 75 1014.0
20260501174504 7 35 16.1 25.7 0.00 0.15 0.00 63 1013.9
20260501173004 6 355 16.1 24.1 0.00 0.15 0.00 62 1013.9
20260501171504 7 22 4.8 17.7 0.00 0.15 0.00 61 1014.0
20260501170002 7 280 4.8 16.1 0.00 0.15 0.00 65 1014.1
20260501164602 7 360 9.7 19.3 0.00 0.15 0.00 64 1014.0
20260501163059 6 34 6.4 17.7 0.00 0.15 0.00 63 1014.1
20260501161556 6 204 9.7 19.3 0.00 0.15 0.00 67 1014.1
20260501160055 6 317 4.8 16.1 0.00 0.15 0.00 65 1014.1
20260501154555 5 5 9.7 19.3 0.00 0.15 0.00 67 1014.1
20260501153108 6 317 6.4 17.7 0.00 0.15 0.00 66 1014.2
20260501151608 6 16 3.2 17.7 0.00 0.15 0.00 67 1014.3